User: anonymous   Login
Location: CNYAC Observatory
(43.2150°N, 74.9500°W)
Time: 11:16:37
(UTC-04:00)
Language:

Meteor 1-22 Rocket - Orbit

View from above orbital plane
View from above orbital plane
View from above satellite
View from above satellite

Ground track
Ground track

The orbit data is extracted from the following two-line orbital elements,

1  8294U 75087B   17086.52862568 -.00000069 +00000-0 -44438-4 0  9998
2  8294 081.2065 102.2036 0104346 272.7415 086.1816 14.08560062133343
Epoch (UTC): 27 March 2017 12:41:13
Eccentricity: 0.0104346
inclination: 81.2065°
perigee height: 789 km
apogee height: 940 km
right ascension of ascending node: 102.2036°
argument of perigee: 272.7415°
revolutions per day: 14.08560062
mean anomaly at epoch: 86.1816°
orbit number at epoch: 13334

The dashed part of the orbit path shows where the satellite is in the earth's shadow,  

DLR